Theta_e
322 322 314 303 302 302 302 302 302 301 301 302 303 304 306 307 309 310 310 310 309 309 308 309 312 312 312 312 311 312 308 307 308 308 310 308 308 310 310 310 311 312 312 312 311
321 322 321 310 303 302 302 301 301 301 301 301 302 303 305 307 308 309 311 310 308 309 309 310 312 312 312 312 312 309 307 308 306 306 307 307 308 309 310 310 310 311 312 312 310
321 321 322 320 313 304 302 301 301 301 301 301 302 303 305 307 309 311 311 311 308 309 309 310 311 312 312 312 311 308 309 307 309 309 308 307 310 311 309 309 311 311 312 312 307
320 319 321 321 321 319 307 302 301 301 301 302 301 302 305 306 311 313 312 309 308 308 309 311 311 312 310 309 310 310 309 308 309 310 309 308 310 310 310 309 312 312 311 310 306
321 320 320 321 321 322 321 317 302 300 301 301 302 302 306 307 308 312 312 310 308 308 308 310 311 312 310 309 310 309 309 310 309 310 310 310 310 309 310 311 311 311 310 309 305
317 318 318 320 321 320 321 321 311 301 300 301 301 302 305 306 310 311 311 310 309 308 308 310 311 312 310 310 309 309 310 309 310 310 310 309 309 310 309 311 311 311 310 307 305
316 317 320 319 318 319 320 321 320 302 300 300 301 301 303 305 309 311 310 310 309 308 308 310 311 311 311 310 311 310 310 309 310 310 310 309 306 307 309 310 311 310 310 307 305
314 315 317 317 317 318 320 320 320 319 302 300 300 301 303 306 308 309 310 309 308 308 309 309 311 311 311 311 310 310 308 307 308 310 310 307 304 307 308 310 310 310 309 307 306
312 314 314 316 318 318 319 319 320 320 317 303 300 301 303 306 308 310 309 309 309 310 310 311 312 311 310 308 306 305 305 307 311 309 309 307 305 305 309 310 310 310 308 307 307
308 311 313 314 314 317 317 318 319 319 316 309 304 307 305 306 308 308 309 309 309 310 311 312 310 307 306 305 306 307 309 310 309 309 309 309 308 306 309 309 310 310 309 309 307
302 307 309 312 314 315 318 318 316 311 313 314 304 304 305 308 308 308 310 310 309 310 308 310 307 307 307 306 307 306 307 311 308 309 309 307 307 307 307 308 309 310 310 310 309
302 304 307 309 311 312 316 316 316 314 314 314 303 304 304 306 308 308 310 311 310 309 306 307 308 307 306 308 308 308 310 308 308 308 307 302 304 304 303 306 308 309 310 310 310
302 302 304 307 310 313 314 315 316 314 311 313 314 309 305 306 307 308 309 311 310 309 306 306 307 306 308 309 310 308 308 305 305 307 306 305 304 303 306 305 306 308 309 311 311
301 301 302 306 308 313 312 313 313 311 309 313 306 309 309 308 307 307 309 310 309 309 305 306 307 308 308 309 309 311 305 308 308 305 303 304 305 303 304 306 306 307 309 311 310
300 301 302 305 310 311 311 311 313 311 304 308 304 306 306 308 307 309 309 310 309 309 307 308 307 308 308 309 306 309 306 307 308 306 307 304 304 302 305 306 305 305 309 311 310
298 299 301 303 306 310 310 312 310 312 313 306 303 305 306 307 307 308 309 309 309 308 307 308 307 307 307 306 307 306 307 306 304 304 304 304 303 303 303 306 306 305 309 310 309
296 299 300 302 305 308 311 309 309 309 305 304 303 305 306 307 307 308 309 308 308 307 308 308 308 306 306 308 308 307 306 308 306 305 307 303 303 303 303 302 305 303 308 310 309
295 297 299 301 303 305 306 307 311 301 302 303 304 305 306 307 308 309 309 310 309 306 306 309 309 306 304 306 308 307 305 308 307 308 307 303 306 307 302 303 303 305 308 309 308
295 297 298 300 300 303 304 309 305 300 305 305 305 304 305 306 307 308 309 310 310 306 310 308 310 304 304 305 306 308 308 306 306 296 304 305 304 302 300 304 303 304 305 308 308
295 296 298 299 300 301 303 309 302 302 304 305 308 304 302 305 307 308 307 307 308 307 308 309 309 304 304 305 305 305 305 307 305 307 307 305 304 306 305 303 302 300 303 307 308
296 296 298 299 300 300 304 305 303 304 305 306 306 301 304 304 305 307 308 307 307 307 308 309 310 306 305 304 305 306 305 304 305 305 308 307 306 302 303 302 302 300 304 307 307
296 297 297 299 300 300 303 303 305 305 306 304 305 306 305 303 305 307 309 308 307 307 309 309 310 309 306 303 303 304 305 304 307 307 305 306 307 304 302 301 302 302 305 307 306
295 296 297 299 301 300 300 301 304 305 304 304 305 306 304 304 306 307 306 305 305 306 308 307 310 315 312 305 300 303 303 303 304 304 306 309 308 302 301 301 302 303 305 306 304
295 296 297 299 300 300 300 303 303 305 305 303 304 305 304 305 302 305 306 303 304 306 309 310 308 313 318 311 305 304 303 305 305 306 306 306 308 307 304 301 300 302 305 306 304
295 293 296 291 298 299 299 302 304 306 305 306 304 307 306 304 304 305 304 303 304 306 309 309 311 309 308 306 303 304 304 305 306 307 307 309 304 306 304 302 300 304 303 304 303
294 294 296 293 296 297 299 299 302 302 304 306 308 307 308 307 308 304 304 304 306 304 305 306 309 303 311 305 302 303 303 303 304 306 306 305 304 304 305 304 301 303 304 303 304
293 293 294 295 297 293 294 296 298 299 303 305 305 308 307 308 307 307 308 306 307 306 305 303 303 306 309 300 307 313 312 307 302 303 305 307 308 305 304 301 302 304 304 306 306
Wind_Speed
11 13 14 11 8 6 5 6 7 4 4 5 4 5 5 5 3 3 3 3 3 3 5 8 9 8 7 4 2 2 4 2 5 7 3 7 3 5 3 4 6 5 5 7 9
10 10 12 13 10 7 7 5 5 8 5 4 4 4 6 5 5 6 4 3 3 4 6 9 9 6 3 3 1 4 3 6 3 3 4 8 5 9 4 4 6 6 10 10 13
11 11 10 11 12 10 7 7 5 5 7 5 4 4 4 5 5 2 6 5 4 6 8 8 9 5 2 2 1 2 4 4 2 1 8 8 4 7 6 5 9 9 11 12 13
12 12 11 10 10 11 12 9 7 6 5 7 5 4 4 2 2 1 3 3 4 6 8 8 7 4 3 2 2 2 2 3 5 3 5 6 5 3 12 4 4 8 10 12 12
13 14 12 10 11 10 11 13 10 6 6 5 7 4 3 3 4 5 4 3 4 6 8 9 9 5 4 4 2 3 3 3 4 4 4 4 5 7 12 12 10 10 11 11 12
19 17 15 13 11 12 12 12 13 8 6 6 6 6 3 3 4 5 5 4 5 7 8 9 7 5 6 2 2 4 4 3 3 3 2 2 3 2 6 14 13 13 13 11 12
15 15 16 12 14 13 13 11 10 10 7 6 6 7 5 8 5 5 5 5 5 7 8 10 5 6 7 4 5 8 3 3 4 3 1 1 5 10 11 15 17 16 14 12 11
17 16 16 14 14 15 13 11 10 9 9 7 6 8 4 7 8 11 7 4 5 9 7 10 8 6 3 11 5 3 3 0 1 5 2 3 9 4 12 18 19 17 15 13 11
21 18 16 16 18 14 14 11 11 10 10 7 6 4 6 6 7 8 7 6 6 8 9 10 9 4 6 5 4 5 2 4 4 10 3 4 7 3 10 19 19 18 15 14 13
20 20 20 17 16 14 13 12 13 10 11 8 8 3 6 4 5 7 9 8 5 10 10 5 3 3 3 3 5 6 4 4 5 4 4 3 14 10 11 19 24 20 16 16 14
17 13 17 19 17 16 9 11 8 5 10 8 3 6 3 3 4 7 11 10 8 7 5 3 3 8 11 6 2 5 4 3 3 2 3 6 11 16 16 20 24 26 20 18 16
11 12 16 14 14 20 11 6 8 3 6 12 15 15 13 9 4 10 14 9 6 5 5 4 9 6 3 6 4 3 3 4 3 1 2 4 14 16 8 13 29 29 26 23 17
12 13 12 15 10 16 16 13 9 5 2 7 18 18 14 16 7 12 19 11 4 5 6 6 3 7 7 5 6 3 4 3 2 1 2 6 9 6 3 7 15 25 29 24 19
14 9 11 12 12 18 19 14 8 1 2 5 5 6 14 13 4 17 23 9 4 10 7 5 1 5 3 5 5 4 6 4 4 2 3 2 5 6 3 6 6 16 25 25 20
16 10 12 15 6 13 16 15 7 3 2 2 4 3 8 14 9 8 24 9 7 7 6 5 7 4 3 4 7 4 4 5 3 3 2 1 0 8 4 7 7 11 26 25 21
15 16 13 20 18 11 16 14 12 3 10 4 5 5 6 4 5 4 6 1 4 4 3 1 1 3 3 2 1 7 5 6 4 2 2 3 5 6 5 7 2 6 25 27 23
17 16 14 19 11 17 20 22 3 6 2 5 5 5 3 4 4 4 5 5 6 4 4 1 3 1 3 5 4 3 5 2 3 2 5 3 1 10 6 7 5 10 28 28 23
14 17 19 20 18 9 32 3 8 5 9 3 4 6 6 6 3 5 5 9 9 1 3 7 4 9 5 5 6 5 5 5 7 4 3 3 7 7 5 3 12 9 26 28 25
12 17 18 21 20 13 14 9 11 8 8 11 5 5 5 4 5 5 8 11 10 9 5 6 3 1 2 2 4 6 6 2 6 3 3 4 7 10 6 4 3 10 23 33 30
12 13 19 19 18 13 9 23 7 7 8 4 11 6 10 9 8 9 10 7 7 15 5 3 3 2 2 2 1 4 2 2 2 3 4 4 5 7 4 9 7 8 22 34 31
11 5 4 21 18 13 11 11 12 7 7 7 9 5 6 8 7 6 5 3 8 8 15 3 2 2 1 7 8 3 3 3 2 4 5 2 6 7 7 10 15 11 29 38 37
10 3 9 16 11 5 12 8 5 8 11 6 5 4 8 9 6 6 11 5 6 10 11 6 2 5 8 1 1 1 5 6 4 5 3 1 6 3 5 5 12 18 31 36 36
6 6 15 20 9 14 2 10 3 6 7 5 7 4 3 8 5 6 6 3 6 8 11 8 5 4 2 1 4 5 5 4 1 2 7 6 6 1 3 3 12 22 29 34 35
6 3 10 22 15 12 16 11 14 7 4 5 6 5 5 4 3 11 8 2 5 2 12 5 3 10 13 1 4 6 8 16 8 4 5 7 5 5 7 8 8 21 30 35 36
9 6 6 4 11 14 8 5 13 13 14 11 3 12 10 5 4 5 5 4 3 3 5 8 6 9 5 2 2 5 7 15 24 20 10 10 12 11 8 8 11 21 26 32 37
7 4 4 3 6 13 16 17 7 16 4 24 17 26 19 11 15 6 7 4 5 1 4 3 2 3 8 2 4 6 10 11 18 22 19 16 19 10 5 6 8 17 28 35 41
21 22 11 9 4 5 8 16 20 12 11 23 28 9 13 21 9 8 13 14 14 11 6 6 5 3 3 2 4 15 26 18 7 10 18 22 32 2 6 9 14 20 31 40 45
Wind_Direction
342 357 4 2 359 359 9 351 340 353 357 349 342 329 318 298 258 237 242 236 256 215 172 159 162 168 177 167 126 126 68 190 206 159 230 168 142 178 174 161 205 225 242 267 294
325 342 354 1 357 360 354 5 353 336 342 346 337 331 319 308 284 256 236 250 250 199 170 162 161 162 156 155 130 95 122 212 185 185 192 181 179 171 166 199 225 222 245 273 298
309 320 337 349 3 3 2 354 350 347 331 332 336 329 323 317 309 251 223 231 231 197 177 169 168 157 140 142 51 120 177 163 191 198 174 168 181 175 167 239 223 221 244 273 293
279 298 309 325 335 357 8 357 349 337 336 323 325 332 319 291 176 178 202 222 218 198 190 181 172 158 112 158 117 100 78 171 168 159 160 167 159 212 213 228 223 223 258 281 298
269 272 284 304 312 320 338 353 345 338 327 327 318 324 322 258 237 234 271 231 211 197 195 187 180 163 159 142 120 110 161 136 162 171 171 180 210 229 242 234 232 243 259 281 297
258 261 268 278 294 311 315 322 341 329 327 321 317 311 334 260 233 231 239 227 210 198 193 187 194 197 127 102 131 122 125 147 181 190 185 205 239 217 256 213 217 239 255 273 292
252 255 255 264 284 285 300 309 311 334 323 314 314 304 284 264 245 234 227 224 219 204 201 191 179 173 143 100 109 123 77 333 224 213 241 72 276 232 229 199 217 234 251 263 285
242 247 254 264 268 269 282 291 295 299 324 312 309 308 274 256 244 239 242 232 207 194 194 196 180 145 103 119 56 57 50 14 202 159 180 117 268 283 204 191 214 231 251 258 275
236 241 241 255 255 279 266 285 290 283 277 307 300 324 281 267 247 227 210 195 180 177 166 161 165 114 123 94 26 14 203 211 293 201 134 166 270 282 197 204 225 234 248 257 267
233 245 239 242 249 265 265 284 278 286 259 260 256 342 262 286 232 213 193 174 156 169 156 169 119 82 63 108 214 197 205 228 235 207 206 211 261 268 241 220 234 238 246 253 260
238 254 246 245 246 249 269 276 284 261 233 215 169 163 275 274 227 211 186 170 150 159 155 156 125 212 202 181 119 140 167 211 235 186 224 236 266 266 252 225 237 239 241 249 256
264 249 233 248 253 238 254 228 233 240 300 247 233 232 240 233 275 215 186 170 164 184 125 65 238 209 148 172 144 135 148 240 314 157 189 339 281 261 220 226 224 227 239 239 244
259 258 254 238 240 235 241 243 260 281 266 272 233 233 226 218 215 232 193 179 160 166 186 171 254 145 140 165 168 215 185 193 197 34 239 323 291 302 243 231 235 230 239 233 234
251 262 249 229 249 228 232 241 236 300 22 252 216 221 204 195 261 227 198 171 187 192 165 235 178 149 141 189 145 201 191 135 137 86 240 61 275 296 291 279 217 215 215 214 220
244 245 225 204 235 219 230 234 201 183 346 196 175 164 170 177 157 200 194 210 166 180 140 227 168 151 166 207 168 228 122 134 126 115 22 206 302 270 359 276 232 202 207 207 212
248 248 225 223 228 214 210 210 160 102 236 194 153 162 138 219 114 106 171 174 146 119 43 145 174 164 187 81 104 144 78 47 56 72 353 225 166 276 203 214 216 175 204 205 202
264 238 231 232 223 216 169 157 117 197 298 222 182 161 157 153 124 147 167 189 164 120 184 95 190 252 161 90 28 83 106 25 352 359 221 79 146 253 246 223 206 190 199 198 199
261 242 232 228 220 228 170 176 204 205 201 120 102 107 172 148 197 155 124 199 263 101 126 163 237 172 183 194 174 179 176 168 200 197 229 73 235 247 214 247 234 223 204 192 195
273 255 249 226 232 218 211 193 212 181 162 139 117 114 207 203 146 138 180 220 216 189 210 164 222 54 111 133 145 182 206 178 107 31 51 208 281 292 227 229 195 183 187 189 191
270 267 258 225 220 218 212 220 215 185 128 175 175 156 174 182 159 177 170 201 204 197 239 217 106 354 97 118 198 176 173 120 356 157 239 258 274 244 250 220 204 183 191 187 187
268 249 238 207 208 206 220 221 216 233 145 153 190 136 177 174 163 188 199 232 205 181 169 197 91 6 132 208 180 161 210 219 176 173 176 219 255 219 234 198 196 199 192 188 186
227 216 228 199 201 213 228 213 202 191 211 226 138 133 166 163 158 188 201 219 182 146 184 196 142 177 213 214 216 242 218 181 144 218 244 169 270 221 214 220 190 197 195 195 191
229 240 231 203 214 229 257 229 280 208 190 203 179 161 182 159 148 182 200 160 181 162 167 173 206 223 224 18 355 205 198 215 124 86 204 159 252 163 223 202 206 201 200 199 196
213 254 223 211 234 231 235 226 220 245 236 176 174 131 112 162 260 186 192 176 140 263 135 99 181 214 224 90 128 191 204 201 191 203 167 226 268 273 243 225 208 212 210 201 201
220 219 211 208 227 241 261 231 220 214 214 214 215 195 182 160 132 178 163 137 79 171 104 165 225 222 242 208 179 211 228 206 212 221 206 243 224 245 240 227 218 215 209 207 204
229 225 194 243 183 199 222 233 259 238 244 215 228 217 211 206 205 164 128 160 162 254 134 164 229 133 254 250 205 252 246 218 225 232 248 272 270 247 274 218 185 195 198 207 210
227 240 251 264 205 183 208 231 238 250 269 230 226 230 219 222 164 180 179 169 154 154 170 158 145 145 235 28 83 270 238 225 192 213 215 228 241 156 236 229 214 208 204 208 213